Sao Bento do Norte, Brazil
Current Conditions -  °F | °C
As of 10:00 AM on Thursday 30 Oct 2014 (Local Time) from SBNT Reporting Station
Scattered Clouds Scattered Clouds  
Wind Chill: 86°   Ceiling: Unl
Heat Index: 88°   Visibility: 6mi
Dew Point: 66°   Wind: 20mph
Humidity: 51%   Direction: 110°ESE
Pressure: 29.94"   Gusts: NA
Location:  5.07°S, 36.04°W
Report Text: SBNT 301300Z 11017KT 9999 SCT030 30/19 Q1014
Loading
Personal Weather Stations






























Interactive Weather Map
Tropical Storm Tracking
New forecast layout! Learn more

10-Day Weather Forecast

Advertisements
Track Severe Weather on mobile